Regional Weather Roundup
Issued by NWS Jackson, KY

Home | Current Version | Previous Version | Graphics & Text | Print | Product List | Glossary On
Versions: 1 2 3 4 5 6 7 8 9 10 11 12 13 14 15 16 17 18 19 20 21 22 23 24 25 26 27 28 29 30 31 32 33 34 35 36 37 38 39 40 41 42 43 44 45 46 47 48 49 50
000
ASUS43 KJKL 272310
RWRJKL

EAST KENTUCKY HOURLY WEATHER ROUNDUP
NATIONAL WEATHER SERVICE JACKSON KY
700 PM EDT SAT AUG 27 2016

NOTE: "FAIR" INDICATES FEW OR NO CLOUDS BELOW 12,000 FEET WITH
NO SIGNIFICANT WEATHER AND/OR OBSTRUCTIONS TO VISIBILITY.

* THESE REPORTS ARE NOT UNDER NWS QUALITY CONTROL AND MAY NOT
  REPORT WEATHER SUCH AS PRECIPITATION AND FOG.

KYZ079-080-083-085-087-088-110-112-115-119-120-280000
...EASTERN KENTUCKY...

CITY           SKY/WX    TMP DP  RH WIND       PRES   REMARKS
JACKSON        SUNNY     87  74  64 CALM      30.12R HX  95
LONDON         SUNNY     88  68  51 E5        30.10R HX  91
SOMERSET*      PTSUNNY   84  70  61 CALM      30.10R
MONTICELLO*    CLOUDY   N/A N/A N/A NW8G17    30.10R
WILLIAMSBURG*  CLEAR     86  73  66 CALM      30.10R HX  93
MIDDLESBORO*   CLOUDY    84  73  68 W3        30.10R HX  90
HARLAN APT*    CLOUDY    86  68  54 CALM      30.12S
PIKE CO APT*     N/A     86  73  63 N3        30.13R HX  93
BIG SANDY APT* CLEAR     83  74  74 NE3       30.11S HX  90
MOREHEAD APT*  CLEAR     84  70  61 N7        30.12S
ASHLAND*       SUNNY     91  73  55 W5        30.07R HX 100
$$

KYZ035-036-041-042-044-050-067-078-099-280000
...CENTRAL KENTUCKY...

CITY           SKY/WX    TMP DP  RH WIND       PRES   REMARKS
MT STERLING*   SUNNY     79  70  73 NE5       30.12S
FLEMING/MASON* MOSUNNY   80  72  75 N6        30.13R
LEXINGTON      PTSUNNY   82  69  64 NE8       30.12R
FRANKFORT      MOSUNNY   86  71  60 N3        30.10R HX  91
LOUISVILLE     PTSUNNY   88  71  57 SE3       30.06S HX  94
GLASGOW*       PTSUNNY   85  76  74 CALM      30.08R HX  95
BOWLING GREEN  CLOUDY    85  74  69 SW13      30.07R HX  92
$$

KYZ091>093-OHZ055-061-077-WVZ005-015-034-035-042-280000
...SOUTHERN OHIO/WEST VIRGINIA...

CITY           SKY/WX    TMP DP  RH WIND       PRES   REMARKS
COVINGTON      MOSUNNY   80  72  76 E5        30.10S
COLUMBUS       PTSUNNY   74  70  87 NE7       30.10F
DAYTON         CLOUDY    80  71  74 SE3       30.11S
WILMINGTON     PTSUNNY   75  69  81 E3        30.11F
HUNTINGTON     SUNNY     91  71  51 SE3       30.08S HX  97
CHARLESTON     MOSUNNY   87  70  56 CALM      30.10R HX  92
PINEVILLE*     CLOUDY    80  68  67 MISG      30.19S
BECKLEY        CLOUDY    84  67  56 SE5       30.21S
BLUEFIELD      MOSUNNY   71  66  84 SE3       30.24S
LOGAN CO APT*    N/A     88  72  58 CALM      30.13S HX  94
$$

VAZ002-007-008-TNZ017-027-036-066-071-280000
...SOUTHWEST VIRGINIA/EAST TENNESSEE...

CITY           SKY/WX    TMP DP  RH WIND       PRES   REMARKS
WISE*          CLOUDY    88  55  33 CALM      30.23R
JONESVILLE*      N/A     86  70  58 NE3       30.13R HX  90
ABINGDON*      CLOUDY    85  68  55 CALM      30.17R
BRISTOL        CLOUDY    85  67  54 S6        30.13R
MORRISTOWN*    CLEAR     86  70  58 SW12      30.10R HX  90
SEVIERVILLE*     N/A     77  66  69 SW14      30.12R
KNOXVILLE      PTSUNNY   77  70  79 S3        30.09R
OAK RIDGE      CLOUDY    86  67  52 CALM      30.10R
CROSSVILLE     PTSUNNY   87  66  49 VRB3      30.14R
NASHVILLE      CLOUDY    78  73  84 VRB3      30.08F
$$

...KEY TO REMARKS...
VSB - VISIBILITY IN MILES
WCI - WIND CHILL INDEX
HX  - HEAT INDEX

$$



USA.gov is the U.S. government's official web portal to all federal, state and local government web resources and services.